Torna al catalogo

COSMOS 970 DEB

AttivoLEO
NORAD 10881·DEBRIS·🇷🇺 Russia

Lanciato Dec 21, 1977 da Baikonur Cosmodrome

Loading…

Prossimi Passaggi (prossime 24 ore)

TLE

AggiornatoSource: Space-Track

Epoca: Sep 14, 2026, 10:14 UTC

1 10881U 77121AC  26257.42685162  .00000110  00000-0  20513-3 0  9998
2 10881  65.8432 221.9352 0122572  94.6600 266.8472 13.69576707429524

Traccia COSMOS 970 DEB in tempo reale con AllMySat

Download on the App Store